Year,Month,Day,Hour,Minute,Value (Times are PST for temperature in C)
2018,06,04,00,00,9.60
2018,06,04,00,01,9.50
2018,06,04,00,02,9.50
2018,06,04,00,03,9.50
2018,06,04,00,04,9.50
2018,06,04,00,05,9.50
2018,06,04,00,06,9.50
2018,06,04,00,07,9.50
2018,06,04,00,08,9.50
2018,06,04,00,09,9.50
2018,06,04,00,10,9.50
2018,06,04,00,11,9.40
2018,06,04,00,12,9.40
2018,06,04,00,13,9.40
2018,06,04,00,14,9.40
2018,06,04,00,15,9.40
2018,06,04,00,16,9.40
2018,06,04,00,17,9.40
2018,06,04,00,18,9.30
2018,06,04,00,19,9.30
2018,06,04,00,20,9.30
2018,06,04,00,21,9.30
2018,06,04,00,22,9.30
2018,06,04,00,23,9.30
2018,06,04,00,24,9.30
2018,06,04,00,25,9.30
2018,06,04,00,26,9.30
2018,06,04,00,27,9.30
2018,06,04,00,28,9.30
2018,06,04,00,29,9.30
2018,06,04,00,30,9.30
2018,06,04,00,31,9.30
2018,06,04,00,32,9.20
2018,06,04,00,33,9.20
2018,06,04,00,34,9.20
2018,06,04,00,35,9.20
2018,06,04,00,36,9.20
2018,06,04,00,37,9.20
2018,06,04,00,38,9.20
2018,06,04,00,39,9.10
2018,06,04,00,40,9.10
2018,06,04,00,41,9.10
2018,06,04,00,42,9.10
2018,06,04,00,43,9.10
2018,06,04,00,44,9.00
2018,06,04,00,45,9.00
2018,06,04,00,46,9.00
2018,06,04,00,47,9.00
2018,06,04,00,48,8.90
2018,06,04,00,49,8.90
2018,06,04,00,50,8.90
2018,06,04,00,51,8.90
2018,06,04,00,52,8.90
2018,06,04,00,53,8.90
2018,06,04,00,54,8.90
2018,06,04,00,55,8.90
2018,06,04,00,56,8.90
2018,06,04,00,57,8.90
2018,06,04,00,58,8.90
2018,06,04,00,59,8.90
2018,06,04,01,00,8.90
2018,06,04,01,01,8.90
2018,06,04,01,02,8.90
2018,06,04,01,03,9.00
2018,06,04,01,04,9.00
2018,06,04,01,05,9.00
2018,06,04,01,06,9.00
2018,06,04,01,07,9.00
2018,06,04,01,08,9.00
2018,06,04,01,09,9.00
2018,06,04,01,10,9.10
2018,06,04,01,11,9.10
2018,06,04,01,12,9.10
2018,06,04,01,13,9.10
2018,06,04,01,14,9.10
2018,06,04,01,15,9.10
2018,06,04,01,16,9.10
2018,06,04,01,17,9.10
2018,06,04,01,18,9.10
2018,06,04,01,19,9.10
2018,06,04,01,20,9.10
2018,06,04,01,21,9.00
2018,06,04,01,22,9.00
2018,06,04,01,23,9.00
2018,06,04,01,24,9.00
2018,06,04,01,25,9.00
2018,06,04,01,26,9.00
2018,06,04,01,27,9.00
2018,06,04,01,28,9.00
2018,06,04,01,29,9.00
2018,06,04,01,30,9.00
2018,06,04,01,31,9.10
2018,06,04,01,32,9.10
2018,06,04,01,33,9.10
2018,06,04,01,34,9.10
2018,06,04,01,35,9.10
2018,06,04,01,36,9.10
2018,06,04,01,37,9.10
2018,06,04,01,38,9.10
2018,06,04,01,39,9.20
2018,06,04,01,40,9.20
2018,06,04,01,41,9.20
2018,06,04,01,42,9.20
2018,06,04,01,43,9.20
2018,06,04,01,44,9.20
2018,06,04,01,45,9.20
2018,06,04,01,46,9.20
2018,06,04,01,47,9.20
2018,06,04,01,48,9.20
2018,06,04,01,49,9.20
2018,06,04,01,50,9.20
2018,06,04,01,51,9.30
2018,06,04,01,52,9.30
2018,06,04,01,53,9.30
2018,06,04,01,54,9.30
2018,06,04,01,55,9.30
2018,06,04,01,56,9.30
2018,06,04,01,57,9.30
2018,06,04,01,58,9.30
2018,06,04,01,59,9.30
2018,06,04,02,00,9.30
2018,06,04,02,01,9.30
2018,06,04,02,02,9.30
2018,06,04,02,03,9.30
2018,06,04,02,04,9.30
2018,06,04,02,05,9.20
2018,06,04,02,06,9.20
2018,06,04,02,07,9.20
2018,06,04,02,08,9.20
2018,06,04,02,09,9.20
2018,06,04,02,10,9.20
2018,06,04,02,11,9.20
2018,06,04,02,12,9.20
2018,06,04,02,13,9.10
2018,06,04,02,14,9.10
2018,06,04,02,15,9.10
2018,06,04,02,16,9.10
2018,06,04,02,17,9.10
2018,06,04,02,18,9.10
2018,06,04,02,19,9.10
2018,06,04,02,20,9.00
2018,06,04,02,21,9.00
2018,06,04,02,22,9.00
2018,06,04,02,23,9.00
2018,06,04,02,24,9.00
2018,06,04,02,25,8.90
2018,06,04,02,26,8.90
2018,06,04,02,27,8.90
2018,06,04,02,28,8.90
2018,06,04,02,29,8.90
2018,06,04,02,30,8.90
2018,06,04,02,31,8.80
2018,06,04,02,32,8.80
2018,06,04,02,33,8.80
2018,06,04,02,34,8.80
2018,06,04,02,35,8.80
2018,06,04,02,36,8.80
2018,06,04,02,37,8.80
2018,06,04,02,38,8.80
2018,06,04,02,39,8.80
2018,06,04,02,40,8.80
2018,06,04,02,41,8.80
2018,06,04,02,42,8.80
2018,06,04,02,43,8.80
2018,06,04,02,44,8.80
2018,06,04,02,45,8.80
2018,06,04,02,46,8.80
2018,06,04,02,47,8.80
2018,06,04,02,48,8.80
2018,06,04,02,49,8.80
2018,06,04,02,50,8.80
2018,06,04,02,51,8.80
2018,06,04,02,52,8.80
2018,06,04,02,53,8.80
2018,06,04,02,54,8.80
2018,06,04,02,55,8.80
2018,06,04,02,56,8.80
2018,06,04,02,57,8.80
2018,06,04,02,58,8.80
2018,06,04,02,59,8.80
2018,06,04,03,00,8.80
2018,06,04,03,01,8.80
2018,06,04,03,02,8.80
2018,06,04,03,03,8.80
2018,06,04,03,04,8.80
2018,06,04,03,05,8.70
2018,06,04,03,06,8.70
2018,06,04,03,07,8.70
2018,06,04,03,08,8.70
2018,06,04,03,09,8.70
2018,06,04,03,10,8.60
2018,06,04,03,11,8.60
2018,06,04,03,12,8.60
2018,06,04,03,13,8.60
2018,06,04,03,14,8.50
2018,06,04,03,15,8.50
2018,06,04,03,16,8.50
2018,06,04,03,17,8.40
2018,06,04,03,18,8.40
2018,06,04,03,19,8.40
2018,06,04,03,20,8.40
2018,06,04,03,21,8.30
2018,06,04,03,22,8.30
2018,06,04,03,23,8.30
2018,06,04,03,24,8.30
2018,06,04,03,25,8.30
2018,06,04,03,26,8.30
2018,06,04,03,27,8.20
2018,06,04,03,28,8.20
2018,06,04,03,29,8.20
2018,06,04,03,30,8.20
2018,06,04,03,31,8.20
2018,06,04,03,32,8.20
2018,06,04,03,33,8.20
2018,06,04,03,34,8.20
2018,06,04,03,35,8.30
2018,06,04,03,36,8.30
2018,06,04,03,37,8.30
2018,06,04,03,38,8.30
2018,06,04,03,39,8.20
2018,06,04,03,40,8.20
2018,06,04,03,41,8.20
2018,06,04,03,42,8.20
2018,06,04,03,43,8.20
2018,06,04,03,44,8.20
2018,06,04,03,45,8.20
2018,06,04,03,46,8.10
2018,06,04,03,47,8.10
2018,06,04,03,48,8.10
2018,06,04,03,49,8.10
2018,06,04,03,50,8.00
2018,06,04,03,51,8.00
2018,06,04,03,52,8.00
2018,06,04,03,53,8.00
2018,06,04,03,54,7.90
2018,06,04,03,55,7.90
2018,06,04,03,56,7.90
2018,06,04,03,57,7.90
2018,06,04,03,58,7.90
2018,06,04,03,59,7.90
2018,06,04,04,00,7.90
2018,06,04,04,01,7.90
2018,06,04,04,02,7.90
2018,06,04,04,03,7.90
2018,06,04,04,04,7.90
2018,06,04,04,05,7.90
2018,06,04,04,06,7.90
2018,06,04,04,07,7.90
2018,06,04,04,08,7.90
2018,06,04,04,09,8.00
2018,06,04,04,10,8.00
2018,06,04,04,11,8.00
2018,06,04,04,12,8.00
2018,06,04,04,13,8.00
2018,06,04,04,14,8.00
2018,06,04,04,15,8.00
2018,06,04,04,16,8.10
2018,06,04,04,17,8.10
2018,06,04,04,18,8.10
2018,06,04,04,19,8.10
2018,06,04,04,20,8.10
2018,06,04,04,21,8.10
2018,06,04,04,22,8.20
2018,06,04,04,23,8.20
2018,06,04,04,24,8.20
2018,06,04,04,25,8.20
2018,06,04,04,26,8.20
2018,06,04,04,27,8.30
2018,06,04,04,28,8.30
2018,06,04,04,29,8.30
2018,06,04,04,30,8.30
2018,06,04,04,31,8.40
2018,06,04,04,32,8.40
2018,06,04,04,33,8.40
2018,06,04,04,34,8.50
2018,06,04,04,35,8.50
2018,06,04,04,36,8.50
2018,06,04,04,37,8.60
2018,06,04,04,38,8.60
2018,06,04,04,39,8.60
2018,06,04,04,40,8.70
2018,06,04,04,41,8.70
2018,06,04,04,42,8.70
2018,06,04,04,43,8.70
2018,06,04,04,44,8.70
2018,06,04,04,45,8.70
2018,06,04,04,46,8.80
2018,06,04,04,47,8.80
2018,06,04,04,48,8.80
2018,06,04,04,49,8.80
2018,06,04,04,50,8.80
2018,06,04,04,51,8.80
2018,06,04,04,52,8.80
2018,06,04,04,53,8.80
2018,06,04,04,54,8.80
2018,06,04,04,55,8.80
2018,06,04,04,56,8.80
2018,06,04,04,57,8.80
2018,06,04,04,58,8.80
2018,06,04,04,59,8.80
2018,06,04,05,00,8.80
2018,06,04,05,01,8.80
2018,06,04,05,02,8.80
2018,06,04,05,03,8.80
2018,06,04,05,04,8.80
2018,06,04,05,05,8.80
2018,06,04,05,06,8.80
2018,06,04,05,07,8.80
2018,06,04,05,08,8.80
2018,06,04,05,09,8.80
2018,06,04,05,10,8.70
2018,06,04,05,11,8.70
2018,06,04,05,12,8.70
2018,06,04,05,13,8.70
2018,06,04,05,14,8.70
2018,06,04,05,15,8.70
2018,06,04,05,16,8.70
2018,06,04,05,17,8.70
2018,06,04,05,18,8.60
2018,06,04,05,19,8.60
2018,06,04,05,20,8.60
2018,06,04,05,21,8.60
2018,06,04,05,22,8.50
2018,06,04,05,23,8.50
2018,06,04,05,24,8.50
2018,06,04,05,25,8.40
2018,06,04,05,26,8.40
2018,06,04,05,27,8.40
2018,06,04,05,28,8.40
2018,06,04,05,29,8.30
2018,06,04,05,30,8.30
2018,06,04,05,31,8.30
2018,06,04,05,32,8.30
2018,06,04,05,33,8.30
2018,06,04,05,34,8.30
2018,06,04,05,35,8.30
2018,06,04,05,36,8.30
2018,06,04,05,37,8.30
2018,06,04,05,38,8.30
2018,06,04,05,39,8.30
2018,06,04,05,40,8.30
2018,06,04,05,41,8.30
2018,06,04,05,42,8.30
2018,06,04,05,43,8.30
2018,06,04,05,44,8.30
2018,06,04,05,45,8.30
2018,06,04,05,46,8.30
2018,06,04,05,47,8.30
2018,06,04,05,48,8.30
2018,06,04,05,49,8.30
2018,06,04,05,50,8.30
2018,06,04,05,51,8.30
2018,06,04,05,52,8.30
2018,06,04,05,53,8.40
2018,06,04,05,54,8.40
2018,06,04,05,55,8.40
2018,06,04,05,56,8.40
2018,06,04,05,57,8.40
2018,06,04,05,58,8.40
2018,06,04,05,59,8.40
2018,06,04,06,00,8.40
2018,06,04,06,01,8.40
2018,06,04,06,02,8.50
2018,06,04,06,03,8.50
2018,06,04,06,04,8.50
2018,06,04,06,05,8.50
2018,06,04,06,06,8.60
2018,06,04,06,07,8.60
2018,06,04,06,08,8.60
2018,06,04,06,09,8.60
2018,06,04,06,10,8.60
2018,06,04,06,11,8.60
2018,06,04,06,12,8.60
2018,06,04,06,13,8.60
2018,06,04,06,14,8.70
2018,06,04,06,15,8.70
2018,06,04,06,16,8.70
2018,06,04,06,17,8.70
2018,06,04,06,18,8.70
2018,06,04,06,19,8.80
2018,06,04,06,20,8.80
2018,06,04,06,21,8.80
2018,06,04,06,22,8.80
2018,06,04,06,23,8.80
2018,06,04,06,24,8.80
2018,06,04,06,25,8.80
2018,06,04,06,26,8.80
2018,06,04,06,27,8.90
2018,06,04,06,28,8.90
2018,06,04,06,29,8.90
2018,06,04,06,30,8.90
2018,06,04,06,31,8.90
2018,06,04,06,32,8.90
2018,06,04,06,33,8.90
2018,06,04,06,34,8.90
2018,06,04,06,35,9.00
2018,06,04,06,36,9.00
2018,06,04,06,37,9.00
2018,06,04,06,38,9.10
2018,06,04,06,39,9.10
2018,06,04,06,40,9.10
2018,06,04,06,41,9.10
2018,06,04,06,42,9.10
2018,06,04,06,43,9.20
2018,06,04,06,44,9.20
2018,06,04,06,45,9.20
2018,06,04,06,46,9.20
2018,06,04,06,47,9.30
2018,06,04,06,48,9.30
2018,06,04,06,49,9.30
2018,06,04,06,50,9.30
2018,06,04,06,51,9.30
2018,06,04,06,52,9.30
2018,06,04,06,53,9.30
2018,06,04,06,54,9.30
2018,06,04,06,55,9.30
2018,06,04,06,56,9.30
2018,06,04,06,57,9.30
2018,06,04,06,58,9.40
2018,06,04,06,59,9.40
2018,06,04,07,00,9.40
2018,06,04,07,01,9.40
2018,06,04,07,02,9.40
2018,06,04,07,03,9.50
2018,06,04,07,04,9.60
2018,06,04,07,05,9.70
2018,06,04,07,06,9.80
2018,06,04,07,07,9.90
2018,06,04,07,08,10.00
2018,06,04,07,09,10.20
2018,06,04,07,10,10.30
2018,06,04,07,11,10.50
2018,06,04,07,12,10.70
2018,06,04,07,13,10.90
2018,06,04,07,14,11.00
2018,06,04,07,15,11.20
2018,06,04,07,16,11.30
2018,06,04,07,17,11.50
2018,06,04,07,18,11.60
2018,06,04,07,19,11.80
2018,06,04,07,20,12.00
2018,06,04,07,21,12.10
2018,06,04,07,22,12.20
2018,06,04,07,23,12.30
2018,06,04,07,24,12.40
2018,06,04,07,25,12.60
2018,06,04,07,26,12.70
2018,06,04,07,27,12.80
2018,06,04,07,28,12.90
2018,06,04,07,29,13.00
2018,06,04,07,30,13.10
2018,06,04,07,31,13.20
2018,06,04,07,32,13.30
2018,06,04,07,33,13.40
2018,06,04,07,34,13.50
2018,06,04,07,35,13.50
2018,06,04,07,36,13.60
2018,06,04,07,37,13.70
2018,06,04,07,38,13.80
2018,06,04,07,39,13.80
2018,06,04,07,40,13.90
2018,06,04,07,41,13.90
2018,06,04,07,42,13.90
2018,06,04,07,43,14.00
2018,06,04,07,44,14.00
2018,06,04,07,45,14.00
2018,06,04,07,46,14.00
2018,06,04,07,47,14.00
2018,06,04,07,48,14.10
2018,06,04,07,49,14.10
2018,06,04,07,50,14.20
2018,06,04,07,51,14.30
2018,06,04,07,52,14.30
2018,06,04,07,53,14.40
2018,06,04,07,54,14.50
2018,06,04,07,55,14.60
2018,06,04,07,56,14.60
2018,06,04,07,57,14.70
2018,06,04,07,58,14.80
2018,06,04,07,59,14.80
2018,06,04,08,00,14.80
2018,06,04,08,01,14.80
2018,06,04,08,02,14.90
2018,06,04,08,03,14.90
2018,06,04,08,04,14.90
2018,06,04,08,05,14.90
2018,06,04,08,06,14.90
2018,06,04,08,07,14.90
2018,06,04,08,08,14.90
2018,06,04,08,09,14.90
2018,06,04,08,10,14.80
2018,06,04,08,11,14.80
2018,06,04,08,12,14.80
2018,06,04,08,13,14.80
2018,06,04,08,14,14.80
2018,06,04,08,15,14.90
2018,06,04,08,16,14.90
2018,06,04,08,17,14.90
2018,06,04,08,18,14.90
2018,06,04,08,19,14.80
2018,06,04,08,20,14.80
2018,06,04,08,21,14.90
2018,06,04,08,22,14.90
2018,06,04,08,23,15.00
2018,06,04,08,24,15.00
2018,06,04,08,25,15.00
2018,06,04,08,26,15.00
2018,06,04,08,27,14.90
2018,06,04,08,28,14.90
2018,06,04,08,29,14.90
2018,06,04,08,30,15.00
2018,06,04,08,31,15.10
2018,06,04,08,32,15.10
2018,06,04,08,33,15.20
2018,06,04,08,34,15.20
2018,06,04,08,35,15.20
2018,06,04,08,36,15.20
2018,06,04,08,37,15.20
2018,06,04,08,38,15.20
2018,06,04,08,39,15.20
2018,06,04,08,40,15.20
2018,06,04,08,41,15.20
2018,06,04,08,42,15.20
2018,06,04,08,43,15.20
2018,06,04,08,44,15.20
2018,06,04,08,45,15.20
2018,06,04,08,46,15.30
2018,06,04,08,47,15.20
2018,06,04,08,48,15.20
2018,06,04,08,49,15.20
2018,06,04,08,50,15.20
2018,06,04,08,51,15.20
2018,06,04,08,52,15.20
2018,06,04,08,53,15.20
2018,06,04,08,54,15.20
2018,06,04,08,55,15.30
2018,06,04,08,56,15.30
2018,06,04,08,57,15.40
2018,06,04,08,58,15.40
2018,06,04,08,59,15.40
2018,06,04,09,00,15.40
2018,06,04,09,01,15.40
2018,06,04,09,02,15.40
2018,06,04,09,03,15.40
2018,06,04,09,04,15.40
2018,06,04,09,05,15.40
2018,06,04,09,06,15.30
2018,06,04,09,07,15.40
2018,06,04,09,08,15.40
2018,06,04,09,09,15.50
2018,06,04,09,10,15.50
2018,06,04,09,11,15.60
2018,06,04,09,12,15.60
2018,06,04,09,13,15.60
2018,06,04,09,14,15.60
2018,06,04,09,15,15.60
2018,06,04,09,16,15.60
2018,06,04,09,17,15.60
2018,06,04,09,18,15.60
2018,06,04,09,19,15.60
2018,06,04,09,20,15.60
2018,06,04,09,21,15.60
2018,06,04,09,22,15.60
2018,06,04,09,23,15.70
2018,06,04,09,24,15.70
2018,06,04,09,25,15.80
2018,06,04,09,26,15.90
2018,06,04,09,27,16.00
2018,06,04,09,28,16.10
2018,06,04,09,29,16.10
2018,06,04,09,30,16.10
2018,06,04,09,31,16.20
2018,06,04,09,32,16.10
2018,06,04,09,33,16.10
2018,06,04,09,34,16.00
2018,06,04,09,35,16.00
2018,06,04,09,36,15.90
2018,06,04,09,37,15.80
2018,06,04,09,38,15.80
2018,06,04,09,39,15.80
2018,06,04,09,40,15.80
2018,06,04,09,41,15.80
2018,06,04,09,42,15.80
2018,06,04,09,43,15.80
2018,06,04,09,44,15.70
2018,06,04,09,45,15.70
2018,06,04,09,46,15.60
2018,06,04,09,47,15.60
2018,06,04,09,48,15.50
2018,06,04,09,49,15.50
2018,06,04,09,50,15.40
2018,06,04,09,51,15.30
2018,06,04,09,52,15.30
2018,06,04,09,53,15.30
2018,06,04,09,54,15.30
2018,06,04,09,55,15.20
2018,06,04,09,56,15.20
2018,06,04,09,57,15.20
2018,06,04,09,58,15.10
2018,06,04,09,59,15.10
2018,06,04,10,00,15.00
2018,06,04,10,01,15.00
2018,06,04,10,02,14.90
2018,06,04,10,03,14.90
2018,06,04,10,04,14.90
2018,06,04,10,05,14.90
2018,06,04,10,06,14.90
2018,06,04,10,07,14.80
2018,06,04,10,08,14.80
2018,06,04,10,09,14.80
2018,06,04,10,10,14.80
2018,06,04,10,11,14.80
2018,06,04,10,12,14.70
2018,06,04,10,13,14.70
2018,06,04,10,14,14.70
2018,06,04,10,15,14.70
2018,06,04,10,16,14.70
2018,06,04,10,17,14.70
2018,06,04,10,18,14.60
2018,06,04,10,19,14.60
2018,06,04,10,20,14.50
2018,06,04,10,21,14.50
2018,06,04,10,22,14.50
2018,06,04,10,23,14.40
2018,06,04,10,24,14.40
2018,06,04,10,25,14.40
2018,06,04,10,26,14.40
2018,06,04,10,27,14.40
2018,06,04,10,28,14.40
2018,06,04,10,29,14.40
2018,06,04,10,30,14.40
2018,06,04,10,31,14.40
2018,06,04,10,32,14.40
2018,06,04,10,33,14.40
2018,06,04,10,34,14.40
2018,06,04,10,35,14.40
2018,06,04,10,36,14.40
2018,06,04,10,37,14.40
2018,06,04,10,38,14.30
2018,06,04,10,39,14.30
2018,06,04,10,40,14.30
2018,06,04,10,41,14.30
2018,06,04,10,42,14.30
2018,06,04,10,43,14.40
2018,06,04,10,44,14.40
2018,06,04,10,45,14.50
2018,06,04,10,46,14.50
2018,06,04,10,47,14.60
2018,06,04,10,48,14.70
2018,06,04,10,49,14.70
2018,06,04,10,50,14.80
2018,06,04,10,51,14.80
2018,06,04,10,52,14.80
2018,06,04,10,53,14.80
2018,06,04,10,54,14.80
2018,06,04,10,55,14.80
2018,06,04,10,56,14.80
2018,06,04,10,57,14.80
2018,06,04,10,58,14.80
2018,06,04,10,59,14.80
2018,06,04,11,00,14.80
2018,06,04,11,01,14.80
2018,06,04,11,02,14.80
2018,06,04,11,03,14.80
2018,06,04,11,04,14.80
2018,06,04,11,05,14.80
2018,06,04,11,06,14.80
2018,06,04,11,07,14.80
2018,06,04,11,08,14.80
2018,06,04,11,09,14.80
2018,06,04,11,10,14.80
2018,06,04,11,11,14.80
2018,06,04,11,12,14.80
2018,06,04,11,13,14.80
2018,06,04,11,14,14.70
2018,06,04,11,15,14.70
2018,06,04,11,16,14.60
2018,06,04,11,17,14.50
2018,06,04,11,18,14.40
2018,06,04,11,19,14.40
2018,06,04,11,20,14.30
2018,06,04,11,21,14.20
2018,06,04,11,22,14.20
2018,06,04,11,23,14.10
2018,06,04,11,24,14.10
2018,06,04,11,25,14.10
2018,06,04,11,26,14.10
2018,06,04,11,27,14.10
2018,06,04,11,28,14.10
2018,06,04,11,29,14.10
2018,06,04,11,30,14.10
2018,06,04,11,31,14.10
2018,06,04,11,32,14.10
2018,06,04,11,33,14.10
2018,06,04,11,34,14.20
2018,06,04,11,35,14.20
2018,06,04,11,36,14.20
2018,06,04,11,37,14.30
2018,06,04,11,38,14.30
2018,06,04,11,39,14.40
2018,06,04,11,40,14.40
2018,06,04,11,41,14.50
2018,06,04,11,42,14.60
2018,06,04,11,43,14.60
2018,06,04,11,44,14.60
2018,06,04,11,45,14.60
2018,06,04,11,46,14.60
2018,06,04,11,47,14.70
2018,06,04,11,48,14.70
2018,06,04,11,49,14.70
2018,06,04,11,50,14.80
2018,06,04,11,51,14.80
2018,06,04,11,52,14.80
2018,06,04,11,53,14.90
2018,06,04,11,54,14.90
2018,06,04,11,55,15.00
2018,06,04,11,56,15.10
2018,06,04,11,57,15.20
2018,06,04,11,58,15.40
2018,06,04,11,59,15.50
2018,06,04,12,00,15.70
2018,06,04,12,01,15.90
2018,06,04,12,02,16.10
2018,06,04,12,03,16.30
2018,06,04,12,04,16.40
2018,06,04,12,05,16.70
2018,06,04,12,06,16.90
2018,06,04,12,07,17.00
2018,06,04,12,08,17.10
2018,06,04,12,09,17.10
2018,06,04,12,10,17.20
2018,06,04,12,11,17.20
2018,06,04,12,12,17.20
2018,06,04,12,13,17.20
2018,06,04,12,14,17.10
2018,06,04,12,15,17.00
2018,06,04,12,16,16.90
2018,06,04,12,17,16.90
2018,06,04,12,18,16.80
2018,06,04,12,19,16.80
2018,06,04,12,20,16.80
2018,06,04,12,21,16.80
2018,06,04,12,22,16.80
2018,06,04,12,23,16.90
2018,06,04,12,24,17.00
2018,06,04,12,25,17.10
2018,06,04,12,26,17.10
2018,06,04,12,27,17.10
2018,06,04,12,28,17.10
2018,06,04,12,29,17.10
2018,06,04,12,30,17.00
2018,06,04,12,31,16.90
2018,06,04,12,32,16.80
2018,06,04,12,33,16.70
2018,06,04,12,34,16.60
2018,06,04,12,35,16.60
2018,06,04,12,36,16.50
2018,06,04,12,37,16.40
2018,06,04,12,38,16.30
2018,06,04,12,39,16.30
2018,06,04,12,40,16.30
2018,06,04,12,41,16.30
2018,06,04,12,42,16.30
2018,06,04,12,43,16.30
2018,06,04,12,44,16.30
2018,06,04,12,45,16.40
2018,06,04,12,46,16.50
2018,06,04,12,47,16.70
2018,06,04,12,48,16.80
2018,06,04,12,49,16.90
2018,06,04,12,50,17.10
2018,06,04,12,51,17.20
2018,06,04,12,52,17.30
2018,06,04,12,53,17.50
2018,06,04,12,54,17.60
2018,06,04,12,55,17.70
2018,06,04,12,56,17.70
2018,06,04,12,57,17.80
2018,06,04,12,58,17.90
2018,06,04,12,59,18.00
2018,06,04,13,00,18.10
2018,06,04,13,01,18.20
2018,06,04,13,02,18.30
2018,06,04,13,03,18.30
2018,06,04,13,04,18.40
2018,06,04,13,05,18.40
2018,06,04,13,06,18.40
2018,06,04,13,07,18.30
2018,06,04,13,08,18.30
2018,06,04,13,09,18.10
2018,06,04,13,10,18.00
2018,06,04,13,11,17.80
2018,06,04,13,12,17.70
2018,06,04,13,13,17.50
2018,06,04,13,14,17.30
2018,06,04,13,15,17.20
2018,06,04,13,16,17.00
2018,06,04,13,17,16.90
2018,06,04,13,18,16.90
2018,06,04,13,19,16.80
2018,06,04,13,20,16.80
2018,06,04,13,21,16.80
2018,06,04,13,22,16.80
2018,06,04,13,23,16.90
2018,06,04,13,24,17.00
2018,06,04,13,25,17.20
2018,06,04,13,26,17.30
2018,06,04,13,27,17.30
2018,06,04,13,28,17.30
2018,06,04,13,29,17.40
2018,06,04,13,30,17.30
2018,06,04,13,31,17.30
2018,06,04,13,32,17.20
2018,06,04,13,33,17.20
2018,06,04,13,34,17.20
2018,06,04,13,35,17.20
2018,06,04,13,36,17.20
2018,06,04,13,37,17.20
2018,06,04,13,38,17.20
2018,06,04,13,39,17.20
2018,06,04,13,40,17.30
2018,06,04,13,41,17.30
2018,06,04,13,42,17.40
2018,06,04,13,43,17.40
2018,06,04,13,44,17.50
2018,06,04,13,45,17.50
2018,06,04,13,46,17.60
2018,06,04,13,47,17.60
2018,06,04,13,48,17.60
2018,06,04,13,49,17.60
2018,06,04,13,50,17.60
2018,06,04,13,51,17.70
2018,06,04,13,52,17.80
2018,06,04,13,53,17.90
2018,06,04,13,54,18.00
2018,06,04,13,55,18.10
2018,06,04,13,56,18.10
2018,06,04,13,57,18.20
2018,06,04,13,58,18.30
2018,06,04,13,59,18.30
2018,06,04,14,00,18.40
2018,06,04,14,01,18.40
2018,06,04,14,02,18.50
2018,06,04,14,03,18.50
2018,06,04,14,04,18.60
2018,06,04,14,05,18.70
2018,06,04,14,06,18.70
2018,06,04,14,07,18.80
2018,06,04,14,08,18.90
2018,06,04,14,09,19.10
2018,06,04,14,10,19.20
2018,06,04,14,11,19.30
2018,06,04,14,12,19.30
2018,06,04,14,13,19.30
2018,06,04,14,14,19.30
2018,06,04,14,15,19.30
2018,06,04,14,16,19.30
2018,06,04,14,17,19.30
2018,06,04,14,18,19.20
2018,06,04,14,19,19.10
2018,06,04,14,20,18.90
2018,06,04,14,21,18.80
2018,06,04,14,22,18.70
2018,06,04,14,23,18.70
2018,06,04,14,24,18.70
2018,06,04,14,25,18.70
2018,06,04,14,26,18.80
2018,06,04,14,27,18.80
2018,06,04,14,28,18.90
2018,06,04,14,29,18.90
2018,06,04,14,30,18.90
2018,06,04,14,31,18.90
2018,06,04,14,32,18.90
2018,06,04,14,33,18.80
2018,06,04,14,34,18.70
2018,06,04,14,35,18.70
2018,06,04,14,36,18.60
2018,06,04,14,37,18.50
2018,06,04,14,38,18.50
2018,06,04,14,39,18.40
2018,06,04,14,40,18.30
2018,06,04,14,41,18.30
2018,06,04,14,42,18.30
2018,06,04,14,43,18.20
2018,06,04,14,44,18.20
2018,06,04,14,45,18.30
2018,06,04,14,46,18.30
2018,06,04,14,47,18.40
2018,06,04,14,48,18.40
2018,06,04,14,49,18.50
2018,06,04,14,50,18.60
2018,06,04,14,51,18.50
2018,06,04,14,52,18.50
2018,06,04,14,53,18.50
2018,06,04,14,54,18.40
2018,06,04,14,55,18.40
2018,06,04,14,56,18.30
2018,06,04,14,57,18.40
2018,06,04,14,58,18.40
2018,06,04,14,59,18.30
2018,06,04,15,00,18.30
2018,06,04,15,01,18.30
2018,06,04,15,02,18.30
2018,06,04,15,03,18.30
2018,06,04,15,04,18.30
2018,06,04,15,05,18.30
2018,06,04,15,06,18.30
2018,06,04,15,07,18.40
2018,06,04,15,08,18.40
2018,06,04,15,09,18.30
2018,06,04,15,10,18.40
2018,06,04,15,11,18.40
2018,06,04,15,12,18.50
2018,06,04,15,13,18.50
2018,06,04,15,14,18.50
2018,06,04,15,15,18.50
2018,06,04,15,16,18.40
2018,06,04,15,17,18.40
2018,06,04,15,18,18.30
2018,06,04,15,19,18.30
2018,06,04,15,20,18.30
2018,06,04,15,21,18.30
2018,06,04,15,22,18.30
2018,06,04,15,23,18.30
2018,06,04,15,24,18.20
2018,06,04,15,25,18.10
2018,06,04,15,26,18.00
2018,06,04,15,27,18.00
2018,06,04,15,28,17.90
2018,06,04,15,29,17.80
2018,06,04,15,30,17.60
2018,06,04,15,31,17.60
2018,06,04,15,32,17.50
2018,06,04,15,33,17.40
2018,06,04,15,34,17.30
2018,06,04,15,35,17.30
2018,06,04,15,36,17.20
2018,06,04,15,37,17.20
2018,06,04,15,38,17.10
2018,06,04,15,39,17.10
2018,06,04,15,40,17.10
2018,06,04,15,41,17.10
2018,06,04,15,42,17.20
2018,06,04,15,43,17.20
2018,06,04,15,44,17.20
2018,06,04,15,45,17.30
2018,06,04,15,46,17.30
2018,06,04,15,47,17.20
2018,06,04,15,48,17.20
2018,06,04,15,49,17.20
2018,06,04,15,50,17.20
2018,06,04,15,51,17.10
2018,06,04,15,52,17.10
2018,06,04,15,53,17.00
2018,06,04,15,54,16.90
2018,06,04,15,55,16.90
2018,06,04,15,56,16.80
2018,06,04,15,57,16.80
2018,06,04,15,58,16.80
2018,06,04,15,59,16.80
2018,06,04,16,00,16.80
2018,06,04,16,01,16.80
2018,06,04,16,02,16.90
2018,06,04,16,03,17.00
2018,06,04,16,04,17.10
2018,06,04,16,05,17.10
2018,06,04,16,06,17.10
2018,06,04,16,07,17.10
2018,06,04,16,08,17.10
2018,06,04,16,09,17.10
2018,06,04,16,10,17.10
2018,06,04,16,11,17.10
2018,06,04,16,12,17.10
2018,06,04,16,13,17.10
2018,06,04,16,14,17.10
2018,06,04,16,15,17.10
2018,06,04,16,16,17.20
2018,06,04,16,17,17.20
2018,06,04,16,18,17.30
2018,06,04,16,19,17.50
2018,06,04,16,20,17.50
2018,06,04,16,21,17.60
2018,06,04,16,22,17.70
2018,06,04,16,23,17.80
2018,06,04,16,24,17.80
2018,06,04,16,25,17.90
2018,06,04,16,26,17.90
2018,06,04,16,27,18.00
2018,06,04,16,28,18.10
2018,06,04,16,29,18.10
2018,06,04,16,30,18.10
2018,06,04,16,31,18.10
2018,06,04,16,32,18.20
2018,06,04,16,33,18.20
2018,06,04,16,34,18.20
2018,06,04,16,35,18.20
2018,06,04,16,36,18.20
2018,06,04,16,37,18.30
2018,06,04,16,38,18.20
2018,06,04,16,39,18.20
2018,06,04,16,40,18.20
2018,06,04,16,41,18.20
2018,06,04,16,42,18.10
2018,06,04,16,43,18.10
2018,06,04,16,44,18.00
2018,06,04,16,45,18.00
2018,06,04,16,46,17.90
2018,06,04,16,47,17.90
2018,06,04,16,48,17.90
2018,06,04,16,49,17.80
2018,06,04,16,50,17.80
2018,06,04,16,51,17.80
2018,06,04,16,52,17.80
2018,06,04,16,53,17.90
2018,06,04,16,54,17.90
2018,06,04,16,55,17.80
2018,06,04,16,56,17.80
2018,06,04,16,57,17.80
2018,06,04,16,58,17.70
2018,06,04,16,59,17.70
2018,06,04,17,00,17.70
2018,06,04,17,01,17.70
2018,06,04,17,02,17.70
2018,06,04,17,03,17.60
2018,06,04,17,04,17.60
2018,06,04,17,05,17.70
2018,06,04,17,06,17.70
2018,06,04,17,07,17.70
2018,06,04,17,08,17.60
2018,06,04,17,09,17.60
2018,06,04,17,10,17.60
2018,06,04,17,11,17.60
2018,06,04,17,12,17.60
2018,06,04,17,13,17.60
2018,06,04,17,14,17.60
2018,06,04,17,15,17.60
2018,06,04,17,16,17.60
2018,06,04,17,17,17.50
2018,06,04,17,18,17.50
2018,06,04,17,19,17.50
2018,06,04,17,20,17.40
2018,06,04,17,21,17.40
2018,06,04,17,22,17.40
2018,06,04,17,23,17.30
2018,06,04,17,24,17.30
2018,06,04,17,25,17.30
2018,06,04,17,26,17.20
2018,06,04,17,27,17.20
2018,06,04,17,28,17.10
2018,06,04,17,29,17.10
2018,06,04,17,30,17.00
2018,06,04,17,31,17.00
2018,06,04,17,32,16.90
2018,06,04,17,33,16.90
2018,06,04,17,34,16.90
2018,06,04,17,35,16.90
2018,06,04,17,36,16.90
2018,06,04,17,37,16.80
2018,06,04,17,38,16.80